GW4109 Weather Reports


Display with metric or nautical units.
time (UTC)temp
F
wind
direction
speed
MPH
gust
MPH
rain 1hr
in
rain 24hr
in
rain mn
in
humidity
%
barometer
mb
20260906220117 88 297 0.0 3.0 0.00 0.01 0.01 50 1016.3
20260906215616 88 271 3.0 3.0 0.00 0.01 0.01 49 1016.2
20260906215115 88 283 1.0 2.0 0.00 0.01 0.01 50 1016.5
20260906214614 88 312 1.0 3.0 0.00 0.01 0.01 50 1016.6
20260906214109 89 261 2.0 2.0 0.00 0.01 0.01 49 1016.6
20260906213608 89 344 1.0 2.0 0.00 0.01 0.01 49 1016.8
20260906213102 89 197 1.0 2.0 0.00 0.01 0.01 51 1016.8
20260906212555 89 179 2.0 2.0 0.00 0.01 0.01 50 1017.0
20260906212051 89 269 0.0 2.0 0.00 0.01 0.01 50 1017.0
20260906211545 89 163 1.0 2.0 0.00 0.01 0.01 50 1016.9
20260906211041 89 260 0.0 3.0 0.00 0.01 0.01 52 1017.0
20260906210535 88 250 1.0 5.0 0.00 0.01 0.01 50 1017.1
20260906210035 88 88 1.0 3.0 0.00 0.01 0.01 51 1017.1
20260906205531 88 88 2.0 3.0 0.00 0.01 0.01 51 1017.1
20260906205027 88 69 0.0 2.0 0.00 0.01 0.01 51 1017.0
20260906204527 88 60 0.0 2.0 0.00 0.01 0.01 54 1017.0
20260906204026 87 38 2.0 2.0 0.00 0.01 0.01 53 1017.3
20260906203526 87 50 0.0 2.0 0.00 0.01 0.01 55 1016.9
20260906203021 87 297 0.0 3.0 0.00 0.01 0.01 54 1017.0
20260906202518 87 8 2.0 4.0 0.00 0.01 0.01 52 1017.0
20260906202013 88 103 4.0 4.0 0.00 0.01 0.01 51 1017.2
20260906201513 88 54 1.0 4.0 0.00 0.01 0.01 51 1017.0
20260906201013 88 97 4.0 5.0 0.00 0.01 0.01 50 1017.1
20260906200508 89 85 2.0 4.0 0.00 0.01 0.01 50 1016.8
20260906200004 89 15 0.0 2.0 0.00 0.01 0.01 49 1017.1
20260906195459 89 44 0.0 3.0 0.00 0.01 0.01 47 1016.8
20260906194955 89 47 2.0 3.0 0.00 0.01 0.01 46 1017.1
20260906194451 89 351 3.0 4.0 0.00 0.01 0.01 47 1017.2
20260906193947 89 354 3.0 4.0 0.00 0.01 0.01 47 1016.7
20260906193447 89 330 2.0 4.0 0.00 0.01 0.01 45 1017.0
20260906192942 89 241 4.0 5.0 0.00 0.01 0.01 46 1017.1
20260906192437 89 284 4.0 5.0 0.00 0.01 0.01 50 1017.3
20260906191937 89 146 0.0 2.0 0.00 0.01 0.01 49 1017.0
20260906191432 89 81 0.0 2.0 0.00 0.01 0.01 50 1017.0
20260906190931 89 144 0.0 2.0 0.00 0.01 0.01 51 1017.1
20260906190430 89 91 1.0 2.0 0.00 0.01 0.01 49 1017.4
20260906185925 89 197 0.0 2.0 0.00 0.01 0.01 50 1017.3
20260906185424 89 89 0.0 2.0 0.00 0.01 0.01 51 1017.3
20260906184923 89 95 0.0 2.0 0.00 0.01 0.01 50 1017.3
20260906184418 89 139 0.0 2.0 0.00 0.01 0.01 51 1017.3
20260906183913 89 310 0.0 0.0 0.00 0.01 0.01 51 1017.3
20260906183409 89 29 0.0 1.0 0.00 0.01 0.01 51 1017.4
20260906182904 89 309 0.0 1.0 0.00 0.01 0.01 51 1017.4
20260906182400 88 93 1.0 2.0 0.00 0.01 0.01 52 1017.3
20260906181855 88 55 0.0 2.0 0.00 0.01 0.01 53 1017.4
20260906181351 88 7 1.0 2.0 0.00 0.01 0.01 54 1017.4
20260906180847 87 269 0.0 1.0 0.00 0.01 0.01 55 1017.5
20260906180341 87 313 1.0 2.0 0.00 0.01 0.01 54 1017.3
20260906175839 87 53 2.0 2.0 0.00 0.01 0.01 56 1017.4
20260906175334 87 321 1.0 2.0 0.00 0.01 0.01 55 1017.2
20260906174833 86 346 0.0 2.0 0.00 0.01 0.01 58 1017.2
20260906174328 86 283 1.0 1.0 0.00 0.01 0.01 59 1017.2
20260906173822 85 269 0.0 1.0 0.00 0.01 0.01 60 1017.4
20260906173318 85 205 0.0 1.0 0.00 0.01 0.01 60 1017.2
20260906172817 85 230 0.0 2.0 0.00 0.01 0.01 60 1017.3
20260906172313 85 104 0.0 2.0 0.00 0.01 0.01 59 1017.2
20260906171808 85 102 0.0 2.0 0.00 0.01 0.01 60 1017.0
20260906171303 84 56 2.0 3.0 0.00 0.01 0.01 62 1017.2
20260906170758 84 82 2.0 2.0 0.00 0.01 0.01 61 1017.2
20260906170254 84 72 2.0 3.0 0.00 0.01 0.01 60 1017.1
20260906165749 85 54 2.0 2.0 0.00 0.01 0.01 61 1017.1
20260906165244 85 73 1.0 2.0 0.00 0.01 0.01 58 1017.0
20260906164743 85 63 0.0 2.0 0.00 0.01 0.01 56 1016.9
20260906164238 85 312 1.0 2.0 0.00 0.01 0.01 58 1016.9
20260906163735 85 21 0.0 1.0 0.00 0.01 0.01 56 1016.8
20260906163231 85 89 0.0 2.0 0.00 0.01 0.01 57 1016.8
20260906162727 85 240 0.0 1.0 0.00 0.01 0.01 56 1016.7
20260906162222 85 25 0.0 1.0 0.00 0.01 0.01 57 1016.8
20260906161717 84 89 0.0 1.0 0.00 0.01 0.01 57 1016.7
20260906161216 84 86 1.0 1.0 0.00 0.01 0.01 58 1016.9
20260906160715 83 266 2.0 2.0 0.00 0.01 0.01 61 1016.8
20260906160214 83 283 0.0 3.0 0.00 0.01 0.01 63 1016.6
20260906155712 83 263 1.0 3.0 0.00 0.01 0.01 66 1016.7
20260906155207 82 209 0.0 1.0 0.00 0.01 0.01 67 1016.8
20260906154702 82 242 0.0 1.0 0.00 0.01 0.01 68 1016.8
20260906154157 82 331 1.0 2.0 0.00 0.01 0.01 70 1016.7
20260906153655 81 116 0.0 2.0 0.00 0.01 0.01 70 1016.7
20260906153150 81 265 0.0 2.0 0.00 0.01 0.01 70 1016.6
20260906152645 81 54 0.0 2.0 0.00 0.01 0.01 73 1016.7
20260906152144 81 245 2.0 3.0 0.00 0.01 0.01 72 1016.7
20260906151639 80 261 0.0 2.0 0.00 0.01 0.01 74 1016.6
20260906151135 80 224 0.0 2.0 0.00 0.01 0.01 72 1016.7
20260906150630 80 319 0.0 2.0 0.00 0.01 0.01 74 1016.7
20260906150126 80 236 1.0 2.0 0.00 0.01 0.01 74 1016.9
20260906145625 79 283 0.0 2.0 0.00 0.01 0.01 76 1016.7
20260906145119 79 232 1.0 3.0 0.00 0.01 0.01 75 1016.5
20260906144614 79 219 0.0 2.0 0.00 0.01 0.01 75 1016.7
20260906144109 79 290 0.0 3.0 0.00 0.01 0.01 77 1016.7
20260906143609 79 303 0.0 1.0 0.00 0.01 0.01 75 1016.6
20260906143106 79 2 0.0 1.0 0.00 0.01 0.01 74 1016.7
20260906142605 79 242 0.0 1.0 0.00 0.01 0.01 76 1016.6
20260906142106 79 68 1.0 2.0 0.00 0.01 0.01 75 1016.2
20260906141604 79 61 1.0 2.0 0.00 0.01 0.01 74 1016.2
20260906141100 79 31 2.0 2.0 0.00 0.01 0.01 74 1016.0
20260906140559 79 49 0.0 1.0 0.00 0.01 0.01 74 1016.0
20260906140054 79 25 0.0 2.0 0.00 0.01 0.01 73 1015.9
20260906135551 79 53 1.0 2.0 0.00 0.01 0.01 74 1015.8
20260906135047 79 348 2.0 3.0 0.00 0.01 0.01 75 1015.8
20260906134542 79 214 1.0 2.0 0.00 0.01 0.01 73 1015.6
20260906134037 79 260 0.0 2.0 0.00 0.01 0.01 76 1015.6
20260906133533 79 334 0.0 1.0 0.00 0.01 0.01 72 1015.6
20260906133028 79 235 0.0 1.0 0.00 0.01 0.01 71 1015.7
20260906132523 79 69 0.0 2.0 0.00 0.01 0.01 71 1015.4
20260906132019 79 345 2.0 2.0 0.00 0.01 0.01 71 1015.4
20260906131514 79 29 0.0 2.0 0.00 0.01 0.01 70 1015.3
20260906131009 80 76 1.0 2.0 0.00 0.01 0.01 72 1015.4
20260906130504 80 91 1.0 2.0 0.00 0.01 0.01 70 1015.4
20260906130004 79 104 0.0 1.0 0.00 0.01 0.01 72 1015.4
20260906125501 80 102 1.0 2.0 0.00 0.01 0.01 73 1015.3
20260906125001 80 76 0.0 2.0 0.00 0.01 0.01 69 1015.2
20260906124456 80 247 0.0 1.0 0.00 0.01 0.01 68 1015.3
20260906123951 80 294 0.0 2.0 0.00 0.01 0.01 70 1015.2
20260906123450 80 187 1.0 2.0 0.00 0.01 0.01 71 1015.2
20260906122944 80 231 1.0 3.0 0.00 0.01 0.01 69 1015.1
20260906122439 80 230 2.0 3.0 0.00 0.01 0.01 69 1015.3
20260906121936 80 184 1.0 3.0 0.00 0.01 0.01 69 1015.4
20260906121432 80 239 2.0 3.0 0.00 0.01 0.01 68 1015.3
20260906120929 80 257 0.0 2.0 0.00 0.01 0.01 70 1015.4
20260906120424 80 203 0.0 2.0 0.00 0.01 0.01 69 1015.5
20260906115920 79 265 0.0 2.0 0.00 0.01 0.01 72 1015.5
20260906115415 79 131 0.0 2.0 0.02 0.01 0.01 70 1015.4
20260906114914 79 210 0.0 2.0 0.02 0.01 0.01 71 1015.6
20260906114409 81 253 0.0 1.0 0.02 0.01 0.01 62 1015.6
20260906113900 80 304 0.0 1.0 0.00 0.00 0.00 70 1015.5
20260906113358 80 293 0.0 2.0 0.00 0.00 0.00 71 1015.5
20260906112854 80 281 1.0 3.0 0.00 0.00 0.00 71 1015.4
20260906112349 80 279 1.0 3.0 0.00 0.00 0.00 72 1015.3
20260906111849 81 269 0.0 2.0 0.00 0.00 0.00 64 1015.4
20260906111349 81 76 0.0 2.0 0.02 0.00 0.00 60 1015.4
20260906110844 81 209 1.0 2.0 0.02 0.00 0.00 63 1015.4
20260906110340 82 197 0.0 1.0 0.00 0.00 0.00 57 1015.1
20260906105838 83 99 0.0 1.0 0.00 0.00 0.00 61 1015.4
20260906105335 84 75 0.0 2.0 0.00 0.00 0.00 51 1014.9
20260906104831 84 60 2.0 2.0 0.00 0.00 0.00 47 1015.0
20260906104329 84 61 1.0 2.0 0.00 0.00 0.00 45 1015.0
20260906103827 84 60 2.0 2.0 0.00 0.00 0.00 45 1015.0
20260906103326 84 359 2.0 2.0 0.00 0.00 0.00 46 1014.9
20260906102822 84 328 1.0 2.0 0.00 0.00 0.00 45 1014.9
20260906102321 84 266 1.0 2.0 0.00 0.00 0.00 46 1014.8
20260906101816 84 297 0.0 1.0 0.00 0.00 0.00 45 1014.8
20260906101312 84 256 0.0 1.0 0.00 0.00 0.00 45 1014.6
20260906100807 84 68 0.0 2.0 0.00 0.00 0.00 45 1014.8
20260906100306 84 266 0.0 2.0 0.00 0.00 0.00 45 1014.7
20260906095801 84 70 0.0 2.0 0.00 0.00 0.00 45 1014.7
20260906095252 84 72 0.0 1.0 0.00 0.00 0.00 45 1014.6
20260906094750 84 69 0.0 1.0 0.00 0.00 0.00 45 1014.7
20260906094245 85 269 0.0 1.0 0.00 0.00 0.00 45 1014.7
20260906093741 85 325 1.0 2.0 0.00 0.00 0.00 44 1014.8
20260906093236 85 319 2.0 2.0 0.00 0.00 0.00 44 1014.8
20260906092732 85 315 0.0 1.0 0.00 0.00 0.00 43 1014.6
20260906092226 86 80 0.0 2.0 0.00 0.00 0.00 44 1014.9
20260906091722 86 68 0.0 1.0 0.00 0.00 0.00 44 1015.1
20260906091213 86 63 0.0 1.0 0.00 0.00 0.00 44 1015.1
20260906090709 86 304 1.0 2.0 0.00 0.00 0.00 44 1015.0
20260906090208 86 323 0.0 1.0 0.00 0.00 0.00 43 1015.1
20260906085707 86 49 0.0 2.0 0.00 0.00 0.00 43 1015.0
20260906085206 85 64 2.0 3.0 0.00 0.00 0.00 44 1015.4
20260906084701 86 68 2.0 2.0 0.00 0.00 0.00 46 1015.0
20260906084200 86 91 1.0 2.0 0.00 0.00 0.00 45 1015.2
20260906083655 86 301 0.0 2.0 0.00 0.00 0.00 45 1015.1
20260906083151 86 53 0.0 0.0 0.00 0.00 0.00 44 1015.2
20260906082646 86 280 2.0 3.0 0.00 0.00 0.00 43 1015.0
20260906082141 86 282 0.0 1.0 0.00 0.00 0.00 43 1015.3
20260906081637 86 235 0.0 2.0 0.00 0.00 0.00 43 1015.5
20260906081132 86 298 0.0 2.0 0.00 0.00 0.00 43 1015.4
20260906080629 87 266 0.0 2.0 0.00 0.00 0.00 44 1015.7
20260906080124 86 254 0.0 2.0 0.00 0.00 0.00 43 1015.5
20260906075618 86 214 0.0 2.0 0.00 0.00 0.00 46 1015.6
20260906075113 86 307 0.0 2.0 0.00 0.00 0.00 43 1015.6
20260906074608 87 317 0.0 2.0 0.00 0.00 0.00 43 1015.4
20260906074108 86 82 1.0 3.0 0.00 0.00 0.00 41 1015.8
20260906073608 86 265 0.0 2.0 0.00 0.00 0.00 45 1015.5
20260906073104 86 68 1.0 2.0 0.00 0.00 0.00 44 1015.8
20260906072558 87 58 0.0 1.0 0.00 0.00 0.00 43 1015.6
20260906072054 87 3 0.0 2.0 0.00 0.00 0.00 41 1015.6
20260906071550 87 67 0.0 2.0 0.00 0.00 0.00 42 1015.4
20260906071040 87 71 2.0 3.0 0.00 0.00 0.00 43 1015.4
20260906070536 87 102 1.0 2.0 0.00 0.00 0.00 42 1015.6
20260906070032 88 37 0.0 1.0 0.00 0.00 0.00 41 1015.7
20260906065531 88 254 1.0 1.0 0.00 0.00 0.00 37 1015.7
20260906065027 88 104 0.0 2.0 0.00 0.00 0.00 37 1015.5
20260906064522 88 311 0.0 1.0 0.00 0.00 0.00 36 1015.6
20260906064017 88 269 0.0 2.0 0.00 0.00 0.00 36 1015.6
20260906063513 88 316 2.0 3.0 0.00 0.00 0.00 36 1015.4
20260906063008 89 37 0.0 1.0 0.00 0.00 0.00 36 1015.1
20260906062502 89 47 0.0 2.0 0.00 0.00 0.00 36 1015.3
20260906061957 89 64 0.0 2.0 0.00 0.00 0.00 36 1015.3
20260906061453 89 78 2.0 2.0 0.00 0.00 0.00 36 1015.3
20260906060947 89 199 0.0 2.0 0.00 0.00 0.00 36 1015.1
20260906060444 89 320 0.0 2.0 0.00 0.00 0.00 35 1015.5
20260906055940 89 119 2.0 3.0 0.00 0.00 0.00 36 1015.4
20260906055436 89 89 0.0 2.0 0.00 0.00 0.00 36 1015.4
20260906054931 89 72 0.0 2.0 0.00 0.00 0.00 35 1015.5
20260906054426 89 71 2.0 2.0 0.00 0.00 0.00 35 1015.5
20260906053922 89 72 2.0 3.0 0.00 0.00 0.00 35 1015.4
20260906053418 89 89 0.0 3.0 0.00 0.00 0.00 35 1015.4
20260906052913 89 143 0.0 3.0 0.00 0.00 0.00 36 1015.3
20260906052409 90 66 0.0 0.0 0.00 0.00 0.00 36 1015.4
20260906051906 90 72 1.0 3.0 0.00 0.00 0.00 36 1015.3
20260906051406 90 355 2.0 2.0 0.00 0.00 0.00 36 1015.3
20260906050902 90 352 1.0 3.0 0.00 0.00 0.00 35 1015.2
20260906050356 90 267 2.0 4.0 0.00 0.00 0.00 35 1015.3
20260906045855 90 23 3.0 4.0 0.00 0.00 0.00 35 1015.2
20260906045349 90 34 2.0 4.0 0.00 0.00 0.00 35 1015.3
20260906044846 91 5 1.0 3.0 0.00 0.00 0.00 35 1015.4
20260906044345 91 73 2.0 2.0 0.00 0.00 0.00 35 1015.3
20260906043841 91 32 2.0 5.0 0.00 0.00 0.00 35 1015.2
20260906043337 91 104 1.0 2.0 0.00 0.00 0.00 35 1015.1
20260906042832 91 81 0.0 4.0 0.00 0.00 0.00 34 1015.5
20260906042331 91 307 0.0 6.0 0.00 0.00 0.00 34 1015.2
20260906041826 91 298 5.0 9.0 0.00 0.00 0.00 35 1015.1
20260906041322 92 257 5.0 13.0 0.00 0.00 0.00 35 1014.9
20260906040817 91 305 6.0 8.0 0.00 0.00 0.00 34 1015.0
20260906040312 91 252 14.0 16.0 0.00 0.00 0.00 34 1014.7
20260906035808 91 267 8.0 14.0 0.00 0.00 0.00 34 1014.9
20260906035305 91 277 6.0 10.0 0.00 0.00 0.00 34 1014.8
20260906034758 91 305 7.0 10.0 0.00 0.00 0.00 34 1014.7
20260906034257 91 264 4.0 11.0 0.00 0.00 0.00 34 1014.5
20260906033754 92 289 2.0 10.0 0.00 0.00 0.00 34 1014.4
20260906033253 92 312 11.0 12.0 0.00 0.00 0.00 35 1014.5
20260906032749 92 257 4.0 11.0 0.00 0.00 0.00 35 1014.5
20260906032244 92 283 4.0 9.0 0.00 0.00 0.00 34 1014.4
20260906031739 92 298 10.0 13.0 0.00 0.00 0.00 33 1014.4
20260906031236 92 296 9.0 12.0 0.00 0.00 0.00 33 1014.4
20260906030734 92 285 5.0 12.0 0.00 0.00 0.00 32 1014.4
20260906030230 92 256 5.0 15.0 0.00 0.00 0.00 32 1014.1
20260906025729 92 265 6.0 14.0 0.00 0.00 0.00 32 1014.2
20260906025223 93 252 5.0 15.0 0.00 0.00 0.00 32 1014.0
20260906024723 93 259 9.0 13.0 0.00 0.00 0.00 32 1014.2
20260906024222 93 264 6.0 17.0 0.00 0.00 0.00 32 1014.3
20260906023718 93 266 11.0 19.0 0.00 0.00 0.00 32 1014.3
20260906023213 93 237 10.0 20.0 0.00 0.00 0.00 32 1014.0
20260906022708 93 260 11.0 13.0 0.00 0.00 0.00 32 1014.1
20260906022204 93 278 6.0 13.0 0.00 0.00 0.00 32 1013.9
20260906021700 94 273 4.0 13.0 0.00 0.00 0.00 32 1014.0
20260906021157 94 294 9.0 14.0 0.00 0.00 0.00 32 1014.2
20260906020647 94 258 7.0 9.0 0.00 0.00 0.00 32 1014.0
20260906020141 94 284 7.0 12.0 0.00 0.00 0.00 32 1014.1
20260906015636 95 286 6.0 11.0 0.00 0.00 0.00 32 1014.2
20260906015134 95 313 5.0 14.0 0.00 0.00 0.00 32 1014.1
20260906014629 95 282 5.0 12.0 0.00 0.00 0.00 33 1014.1
20260906014125 95 269 8.0 13.0 0.00 0.00 0.00 33 1014.1
20260906013620 96 250 4.0 8.0 0.00 0.00 0.00 32 1014.1
20260906013116 96 295 5.0 8.0 0.00 0.00 0.00 31 1014.0
20260906012611 96 261 4.0 7.0 0.00 0.00 0.00 31 1014.2
20260906012110 96 292 3.0 8.0 0.00 0.00 0.00 31 1014.0
20260906011606 96 280 4.0 6.0 0.00 0.00 0.00 30 1014.1
20260906011101 97 242 8.0 9.0 0.00 0.00 0.00 30 1014.1
20260906010556 97 248 2.0 7.0 0.00 0.00 0.00 29 1014.1
20260906010053 98 238 7.0 13.0 0.00 0.00 0.00 28 1014.0
20260906005551 99 254 4.0 11.0 0.00 0.00 0.00 28 1013.9
20260906005050 100 241 8.0 12.0 0.00 0.00 0.00 27 1014.0
20260906004550 100 264 12.0 13.0 0.00 0.00 0.00 27 1014.0
20260906004045 99 266 9.0 14.0 0.00 0.00 0.00 27 1013.8
20260906003540 100 234 11.0 20.0 0.00 0.00 0.00 26 1013.9
20260906003036 101 238 12.0 15.0 0.00 0.00 0.00 26 1013.8
20260906002531 101 243 4.0 11.0 0.00 0.00 0.00 26 1013.9
20260906002026 100 247 5.0 17.0 0.00 0.00 0.00 26 1013.7
20260906001521 102 223 5.0 11.0 0.00 0.00 0.00 25 1013.8
20260906001021 102 245 10.0 12.0 0.00 0.00 0.00 25 1013.7
20260906000517 101 233 11.0 17.0 0.00 0.00 0.00 25 1013.9
20260906000012 103 238 6.0 12.0 0.00 0.00 0.00 25 1013.6
20260905235506 102 230 2.0 15.0 0.00 0.00 0.00 24 1013.7
20260905235001 103 228 5.0 9.0 0.00 0.00 0.00 24 1013.7
20260905234456 103 214 6.0 13.0 0.00 0.00 0.00 24 1013.8
20260905233950 103 197 3.0 14.0 0.00 0.00 0.00 24 1013.8
20260905233447 103 236 8.0 15.0 0.00 0.00 0.00 23 1013.9
20260905232944 104 244 15.0 19.0 0.00 0.00 0.00 23 1013.8
20260905232441 103 210 3.0 10.0 0.00 0.00 0.00 23 1013.9
20260905231936 104 238 0.0 6.0 0.00 0.00 0.00 22 1013.8
20260905231432 103 180 4.0 7.0 0.00 0.00 0.00 23 1013.9
20260905230928 102 89 3.0 6.0 0.00 0.00 0.00 23 1013.9
20260905230426 100 241 4.0 6.0 0.00 0.00 0.00 24 1013.9
20260905225925 103 235 7.0 8.0 0.00 0.00 0.00 24 1014.3
20260905225420 100 245 8.0 12.0 0.00 0.00 0.00 25 1014.2
20260905224915 99 234 5.0 6.0 0.00 0.00 0.00 25 1014.2
20260905224411 99 243 6.0 8.0 0.00 0.00 0.00 25 1014.3
20260905223905 99 273 5.0 9.0 0.00 0.00 0.00 25 1014.2
20260905223403 100 237 11.0 13.0 0.00 0.00 0.00 25 1014.3
20260905222903 100 248 14.0 15.0 0.00 0.00 0.00 24 1014.4
20260905222402 99 302 3.0 10.0 0.00 0.00 0.00 25 1014.1
20260905221858 99 260 11.0 14.0 0.00 0.00 0.00 25 1014.2
20260905221355 100 261 4.0 15.0 0.00 0.00 0.00 25 1014.1
20260905220850 99 245 8.0 14.0 0.00 0.00 0.00 25 1014.4